Regional Weather Roundup
Issued by NWS State College, PA

Home | Current Version | Previous Version | Text Only | Print | Product List | Glossary On
Versions: 1 2 3 4 5 6 7 8 9 10 11 12 13 14 15 16 17 18 19 20 21 22 23 24 25 26 27 28 29 30 31 32 33 34 35 36 37 38 39 40 41 42 43 44 45 46 47 48 49 50
000
ASUS41 KCTP 291910
RWRCTP

REGIONAL WEATHER ROUNDUP
NATIONAL WEATHER SERVICE STATE COLLEGE PA
300 PM EDT TUE JUL 29 2014

Note: "fair" indicates few or no clouds below 12,000 feet with no
significant weather and/or obstructions to visibility.

* = STATION THAT DOES NOT REPORT PRECIPITATION /E.G. RAIN...SNOW...ETC/
    THUNDER OR FOG.

PAZ002>004-007>009-013>016-020>023-029>032-292000-
WESTERN PENNSYLVANIA

CITY           SKY/WX    TMP DP  RH WIND       PRES   REMARKS
ERIE           MOSUNNY   69  48  47 W9G18     29.99S
MEADVILLE      PTSUNNY   66  50  56 NW8       30.00S
FRANKLIN*      CLOUDY    64  50  59 W8        30.01S
NEW CASTLE       N/A     67  52  58 SW8       30.02S
BEAVER COUNTY  CLOUDY    64  50  59 NW6       30.01S
BUTLER*        CLOUDY    63  52  67 W8        30.03S
PITTSBURGH INT CLOUDY    66  48  52 NW6       30.01S
PITTSBURGH     CLOUDY    64  50  60 W7        30.00S
INDIANA*       PTSUNNY   63  48  59 VRB7G13   30.04S
LATROBE        PTSUNNY   63  52  67 NW9       30.02S
WASHINGTON CO* PTSUNNY   66  50  55 W8        30.03R
$$

PAZ004>006-010>012-017>019-024>028-033>037-041-042-045-046-049>053-292000-
CENTRAL PENNSYLVANIA

CITY           SKY/WX    TMP DP  RH WIND       PRES   REMARKS
BRADFORD       CLOUDY    60  49  66 NW7       29.99S
DUBOIS         CLOUDY    63  49  60 NW10      29.99R
CLEARFIELD     CLOUDY    65  50  58 N5        29.99S
JOHNSTOWN      CLOUDY    60  46  59 W8        30.01R
ALTOONA        CLOUDY    64  46  52 NW10      29.99R
STATE COLLEGE  CLOUDY    66  48  52 NW9       29.97R
WILLIAMSPORT   CLOUDY    70  46  42 W10       29.93R
SELINSGROVE    CLOUDY    69  51  52 NW8       29.94R
FT INDIANTOWN  MOSUNNY   71  52  50 N8        29.93R
CAPITAL CITY   PTSUNNY   72  51  47 NW10      29.93R
HARRISBURG     CLOUDY    73  54  51 NW10      29.92R
YORK           CLOUDY    68  56  65 NW9       29.93R
$$

PAZ038>040-043-044-047-048-054-055-060>062-067>071-292000-
EASTERN PENNSYLVANIA

CITY           SKY/WX    TMP DP  RH WIND       PRES   REMARKS
SCRANTON       CLOUDY    69  46  43 NW9       29.92S
MOUNT POCONO   CLOUDY    64  47  53 NW8       29.94R
ALLENTOWN      PTSUNNY   75  49  39 W9G16     29.90S
QUAKERTOWN*    CLOUDY    72  54  53 NW3       29.92S
READING        CLOUDY    74  53  48 NW7       29.91R
LANCASTER      CLOUDY    68  54  60 NW10      29.93R
COATESVILLE    PTCLDY    72  72 100 NW6       29.94R
POTTSTOWN      CLOUDY    71  53  52 VRB3      29.93R
BLUE BELL      MOSUNNY   72  55  56 NW5       29.90S
DOYLESTOWN     CLOUDY    72  53  51 NW8       29.90S
WILLOW GROVE   NOT AVBL
NORTH PHILA    CLOUDY    75  51  43 W6        29.92R
PHILADELPHIA   CLOUDY    74  51  44 W6        29.91R
$$


USA.gov is the U.S. government's official web portal to all federal, state and local government web resources and services.